Time,TemperatureF,DewpointF,PressureIn,WindDirection,WindDirectionDegrees,WindSpeedMPH,WindSpeedGustMPH,Humidity,HourlyPrecipIn,Conditions,Clouds,dailyrainin,SoftwareType,DateUTC
2017-12-13 00:03:00,20.0,13.6,-100.00,West,267,2.5,4.6,76,0.00,CLR,FEW,0.00,WeatherDisplay:10.37,2017-12-13 06:03:00,
2017-12-13 00:08:00,20.1,13.7,-100.00,SW,236,1.8,3.5,76,0.00,CLR,FEW,0.00,WeatherDisplay:10.37,2017-12-13 06:08:00,
2017-12-13 00:13:00,20.1,13.7,-100.00,SW,215,2.5,3.5,76,0.00,CLR,FEW,0.00,WeatherDisplay:10.37,2017-12-13 06:13:00,
2017-12-13 00:23:00,20.1,13.7,-100.00,South,181,2.4,4.6,76,0.00,CLR,FEW,0.00,WeatherDisplay:10.37,2017-12-13 06:23:00,
2017-12-13 00:28:00,20.2,13.8,-100.00,SSW,208,2.9,4.3,76,0.00,CLR,FEW,0.00,WeatherDisplay:10.37,2017-12-13 06:28:00,
2017-12-13 00:30:00,20.2,13.8,-100.00,SSW,202,3.9,4.6,76,0.00,CLR,FEW,0.00,WeatherDisplay:10.37,2017-12-13 06:30:00,
2017-12-13 00:35:00,20.2,13.8,-100.00,SSE,150,3.7,9.2,76,0.00,CLR,FEW,0.00,WeatherDisplay:10.37,2017-12-13 06:35:00,
2017-12-13 00:40:00,20.3,13.9,-100.00,SSE,165,6.3,6.9,76,0.00,CLR,FEW,0.00,WeatherDisplay:10.37,2017-12-13 06:40:00,
2017-12-13 00:45:00,20.3,13.9,-100.00,SSW,200,3.2,3.5,76,0.00,CLR,FEW,0.00,WeatherDisplay:10.37,2017-12-13 06:45:00,
2017-12-13 00:50:00,20.4,14.0,-100.00,SSE,148,3.0,3.5,76,0.00,CLR,FEW,0.00,WeatherDisplay:10.37,2017-12-13 06:50:00,
2017-12-13 00:55:00,20.4,14.0,-100.00,South,191,3.7,5.8,76,0.00,CLR,FEW,0.00,WeatherDisplay:10.37,2017-12-13 06:55:00,
2017-12-13 01:00:00,20.4,14.0,-100.00,WSW,247,3.0,4.6,76,0.00,CLR,FEW,0.00,WeatherDisplay:10.37,2017-12-13 07:00:00,
2017-12-13 01:05:00,20.4,14.0,-100.00,SSW,208,4.0,5.8,76,0.00,CLR,FEW,0.00,WeatherDisplay:10.37,2017-12-13 07:05:00,
2017-12-13 01:10:00,20.6,14.2,-100.00,SW,219,5.1,9.2,76,0.00,CLR,FEW,0.00,WeatherDisplay:10.37,2017-12-13 07:10:00,
2017-12-13 01:15:00,20.7,14.3,-100.00,SW,232,2.8,6.9,76,0.00,CLR,FEW,0.00,WeatherDisplay:10.37,2017-12-13 07:15:00,
2017-12-13 01:20:00,20.7,14.3,-100.00,SSE,165,3.6,5.8,76,0.00,CLR,FEW,0.00,WeatherDisplay:10.37,2017-12-13 07:20:00,
2017-12-13 01:25:00,20.8,14.4,-100.00,SW,222,3.4,6.9,76,0.00,CLR,FEW,0.00,WeatherDisplay:10.37,2017-12-13 07:25:00,
2017-12-13 01:30:00,20.8,14.4,-100.00,SSE,147,2.2,5.8,76,0.00,CLR,FEW,0.00,WeatherDisplay:10.37,2017-12-13 07:30:00,
2017-12-13 01:36:00,20.9,14.5,-100.00,WSW,247,3.4,8.1,76,0.00,CLR,FEW,0.00,WeatherDisplay:10.37,2017-12-13 07:36:00,
2017-12-13 01:41:00,21.1,14.7,-100.00,SSE,157,2.8,5.8,76,0.00,CLR,FEW,0.00,WeatherDisplay:10.37,2017-12-13 07:41:00,
2017-12-13 01:46:00,21.2,14.8,-100.00,SSE,168,3.6,8.1,76,0.00,CLR,FEW,0.00,WeatherDisplay:10.37,2017-12-13 07:46:00,
2017-12-13 02:06:00,21.4,14.7,-100.00,South,189,3.4,4.6,75,0.00,CLR,FEW,0.00,WeatherDisplay:10.37,2017-12-13 08:06:00,
2017-12-13 02:16:00,21.5,14.8,-100.00,SW,227,5.3,10.3,75,0.00,CLR,FEW,0.00,WeatherDisplay:10.37,2017-12-13 08:16:00,
2017-12-13 02:21:00,21.6,14.9,-100.00,SW,229,4.1,5.8,75,0.00,CLR,FEW,0.00,WeatherDisplay:10.37,2017-12-13 08:21:00,
2017-12-13 02:26:00,21.6,14.9,-100.00,SW,224,5.1,8.1,75,0.00,CLR,FEW,0.00,WeatherDisplay:10.37,2017-12-13 08:26:00,
2017-12-13 02:36:00,21.9,15.2,-100.00,SW,227,4.1,8.1,75,0.00,CLR,FEW,0.00,WeatherDisplay:10.37,2017-12-13 08:36:00,
2017-12-13 02:51:00,22.1,15.1,-100.00,SSW,210,5.8,8.1,74,0.00,CLR,FEW,0.00,WeatherDisplay:10.37,2017-12-13 08:51:00,
2017-12-13 03:01:00,22.0,15.0,-100.00,SW,217,5.7,8.8,74,0.00,CLR,FEW,0.00,WeatherDisplay:10.37,2017-12-13 09:01:00,
2017-12-13 03:06:00,21.9,14.9,-100.00,SSW,206,2.8,4.6,74,0.00,CLR,FEW,0.00,WeatherDisplay:10.37,2017-12-13 09:06:00,
2017-12-13 03:11:00,21.8,14.8,-100.00,WSW,248,4.9,10.6,74,0.00,CLR,FEW,0.00,WeatherDisplay:10.37,2017-12-13 09:11:00,
2017-12-13 03:16:00,21.9,14.9,-100.00,WSW,241,4.4,7.6,74,0.00,CLR,FEW,0.00,WeatherDisplay:10.37,2017-12-13 09:16:00,
2017-12-13 03:21:00,21.8,14.8,-100.00,SW,215,6.5,11.5,74,0.00,CLR,FEW,0.00,WeatherDisplay:10.37,2017-12-13 09:21:00,
2017-12-13 03:31:00,21.9,14.9,-100.00,WSW,254,3.4,5.8,74,0.00,CLR,FEW,0.00,WeatherDisplay:10.37,2017-12-13 09:31:00,
2017-12-13 03:36:00,22.1,15.1,-100.00,SSW,213,4.2,5.8,74,0.00,CLR,FEW,0.00,WeatherDisplay:10.37,2017-12-13 09:36:00,
2017-12-13 03:51:00,22.2,15.5,-100.00,SW,223,5.4,8.1,75,0.00,CLR,FEW,0.00,WeatherDisplay:10.37,2017-12-13 09:51:00,
2017-12-13 03:56:00,22.5,15.8,-100.00,SSW,209,6.2,8.1,75,0.00,CLR,FEW,0.00,WeatherDisplay:10.37,2017-12-13 09:56:00,
2017-12-13 04:01:00,22.6,15.9,-100.00,WSW,251,5.3,7.4,75,0.00,CLR,FEW,0.00,WeatherDisplay:10.37,2017-12-13 10:01:00,
2017-12-13 04:03:00,22.7,16.0,-100.00,SSW,212,4.5,6.9,75,0.00,CLR,FEW,0.00,WeatherDisplay:10.37,2017-12-13 10:03:00,
2017-12-13 04:13:00,23.0,16.3,-100.00,SW,216,5.5,6.9,75,0.00,CLR,FEW,0.00,WeatherDisplay:10.37,2017-12-13 10:13:00,
2017-12-13 04:18:00,23.1,16.0,-100.00,SSW,206,4.5,6.9,74,0.00,CLR,FEW,0.00,WeatherDisplay:10.37,2017-12-13 10:18:00,
2017-12-13 04:23:00,23.3,16.2,-100.00,SSE,162,3.6,9.2,74,0.00,CLR,FEW,0.00,WeatherDisplay:10.37,2017-12-13 10:23:00,
2017-12-13 04:28:00,23.4,16.3,-100.00,WSW,248,5.9,9.2,74,0.00,CLR,FEW,0.00,WeatherDisplay:10.37,2017-12-13 10:28:00,
2017-12-13 04:33:00,23.4,16.3,-100.00,South,184,4.4,7.9,74,0.00,CLR,FEW,0.00,WeatherDisplay:10.37,2017-12-13 10:33:00,
2017-12-13 04:38:00,23.7,16.6,-100.00,SSW,213,4.6,6.9,74,0.00,CLR,FEW,0.00,WeatherDisplay:10.37,2017-12-13 10:38:00,
2017-12-13 04:43:00,23.7,16.6,-100.00,SW,215,5.2,8.1,74,0.00,CLR,FEW,0.00,WeatherDisplay:10.37,2017-12-13 10:43:00,
2017-12-13 04:48:00,23.8,16.7,-100.00,South,171,3.2,5.8,74,0.00,CLR,FEW,0.00,WeatherDisplay:10.37,2017-12-13 10:48:00,
2017-12-13 04:53:00,23.9,16.8,-100.00,South,169,6.8,10.4,74,0.00,CLR,FEW,0.00,WeatherDisplay:10.37,2017-12-13 10:53:00,
2017-12-13 04:58:00,23.9,16.8,-100.00,SW,224,6.2,11.5,74,0.00,CLR,FEW,0.00,WeatherDisplay:10.37,2017-12-13 10:58:00,
2017-12-13 05:03:00,24.0,16.9,-100.00,SSW,213,3.9,5.8,74,0.00,CLR,FEW,0.00,WeatherDisplay:10.37,2017-12-13 11:03:00,
2017-12-13 05:08:00,24.0,16.9,-100.00,South,191,4.4,8.1,74,0.00,CLR,FEW,0.00,WeatherDisplay:10.37,2017-12-13 11:08:00,
2017-12-13 05:18:00,24.1,17.0,-100.00,SSW,205,3.3,5.8,74,0.00,CLR,FEW,0.00,WeatherDisplay:10.37,2017-12-13 11:18:00,
2017-12-13 05:23:00,24.2,17.4,-100.00,SW,219,5.1,6.9,75,0.00,CLR,FEW,0.00,WeatherDisplay:10.37,2017-12-13 11:23:00,
2017-12-13 05:28:00,24.3,17.5,-100.00,SW,229,5.2,12.2,75,0.00,CLR,FEW,0.00,WeatherDisplay:10.37,2017-12-13 11:28:00,
2017-12-13 05:33:00,24.3,17.5,-100.00,South,179,4.4,8.1,75,0.00,CLR,FEW,0.00,WeatherDisplay:10.37,2017-12-13 11:33:00,
2017-12-13 05:38:00,24.4,17.6,-100.00,South,172,6.6,15.0,75,0.00,CLR,FEW,0.00,WeatherDisplay:10.37,2017-12-13 11:38:00,
2017-12-13 05:43:00,24.5,18.0,-100.00,SW,236,6.1,9.2,76,0.00,CLR,FEW,0.00,WeatherDisplay:10.37,2017-12-13 11:43:00,
2017-12-13 05:48:00,24.6,18.1,-100.00,SW,217,6.6,12.7,76,0.00,CLR,FEW,0.00,WeatherDisplay:10.37,2017-12-13 11:48:00,
2017-12-13 05:58:00,24.8,18.0,-100.00,SW,230,5.2,9.2,75,0.00,CLR,FEW,0.00,WeatherDisplay:10.37,2017-12-13 11:58:00,
2017-12-13 06:08:00,24.9,18.4,-100.00,SSW,200,4.8,9.2,76,0.00,CLR,FEW,0.00,WeatherDisplay:10.37,2017-12-13 12:08:00,
2017-12-13 06:13:00,25.0,18.5,-100.00,WSW,237,6.6,10.4,76,0.00,CLR,FEW,0.00,WeatherDisplay:10.37,2017-12-13 12:13:00,
2017-12-13 06:18:00,25.0,18.5,-100.00,South,189,8.2,11.5,76,0.00,CLR,FEW,0.00,WeatherDisplay:10.37,2017-12-13 12:18:00,
2017-12-13 06:23:00,25.0,18.5,-100.00,SSE,162,7.4,10.4,76,0.00,CLR,FEW,0.00,WeatherDisplay:10.37,2017-12-13 12:23:00,
2017-12-13 06:43:00,25.5,19.0,-100.00,WNW,284,3.9,11.5,76,0.00,CLR,FEW,0.00,WeatherDisplay:10.37,2017-12-13 12:43:00,
2017-12-13 06:48:00,25.6,19.4,-100.00,WSW,254,7.0,12.7,77,0.00,CLR,FEW,0.00,WeatherDisplay:10.37,2017-12-13 12:48:00,
2017-12-13 06:58:00,25.8,19.6,-100.00,SW,227,8.2,10.4,77,0.00,CLR,FEW,0.00,WeatherDisplay:10.37,2017-12-13 12:58:00,
2017-12-13 07:03:00,25.9,20.0,-100.00,SW,226,6.7,11.5,78,0.00,CLR,FEW,0.00,WeatherDisplay:10.37,2017-12-13 13:03:00,
2017-12-13 07:13:00,26.1,20.2,-100.00,SSW,202,5.9,9.2,78,0.00,CLR,FEW,0.00,WeatherDisplay:10.37,2017-12-13 13:13:00,
2017-12-13 07:18:00,26.3,20.4,-100.00,WSW,239,5.6,8.1,78,0.00,CLR,FEW,0.00,WeatherDisplay:10.37,2017-12-13 13:18:00,
2017-12-13 07:23:00,26.3,20.7,-100.00,SW,229,5.4,9.2,79,0.00,CLR,FEW,0.00,WeatherDisplay:10.37,2017-12-13 13:23:00,
2017-12-13 07:28:00,26.4,20.5,-100.00,South,179,4.0,8.1,78,0.00,CLR,FEW,0.00,WeatherDisplay:10.37,2017-12-13 13:28:00,
2017-12-13 07:33:00,26.4,20.8,-100.00,SSW,198,9.9,16.1,79,0.00,CLR,FEW,0.00,WeatherDisplay:10.37,2017-12-13 13:33:00,
2017-12-13 07:38:00,26.6,21.0,-100.00,West,261,10.8,15.0,79,0.00,CLR,FEW,0.00,WeatherDisplay:10.37,2017-12-13 13:38:00,
2017-12-13 07:43:00,26.8,21.2,-100.00,SW,232,5.3,8.1,79,0.00,CLR,FEW,0.00,WeatherDisplay:10.37,2017-12-13 13:43:00,
2017-12-13 07:48:00,26.8,20.9,-100.00,SSW,198,8.6,16.1,78,0.00,CLR,FEW,0.00,WeatherDisplay:10.37,2017-12-13 13:48:00,
2017-12-13 07:53:00,26.9,21.0,-100.00,SSW,206,7.3,12.7,78,0.00,CLR,FEW,0.00,WeatherDisplay:10.37,2017-12-13 13:53:00,
2017-12-13 07:58:00,26.8,20.9,-100.00,South,171,10.4,13.8,78,0.00,CLR,FEW,0.00,WeatherDisplay:10.37,2017-12-13 13:58:00,
2017-12-13 08:03:00,26.8,20.9,-100.00,SW,219,9.8,16.1,78,0.00,CLR,FEW,0.00,WeatherDisplay:10.37,2017-12-13 14:03:00,
2017-12-13 08:08:00,26.9,21.0,-100.00,West,275,6.8,10.4,78,0.00,CLR,FEW,0.00,WeatherDisplay:10.37,2017-12-13 14:08:00,
2017-12-13 08:14:00,26.9,21.0,-100.00,SSW,196,5.2,8.1,78,0.00,CLR,FEW,0.00,WeatherDisplay:10.37,2017-12-13 14:14:00,
2017-12-13 08:19:00,27.0,21.1,-100.00,SW,226,5.9,9.2,78,0.00,CLR,FEW,0.00,WeatherDisplay:10.37,2017-12-13 14:19:00,
2017-12-13 08:24:00,27.0,21.1,-100.00,SW,220,9.7,15.0,78,0.00,CLR,FEW,0.00,WeatherDisplay:10.37,2017-12-13 14:24:00,
2017-12-13 08:34:00,27.2,21.2,-100.00,SSW,212,7.8,10.4,78,0.00,CLR,FEW,0.00,WeatherDisplay:10.37,2017-12-13 14:34:00,
2017-12-13 08:39:00,27.2,21.2,-100.00,SW,226,5.8,7.1,78,0.00,CLR,FEW,0.00,WeatherDisplay:10.37,2017-12-13 14:39:00,
2017-12-13 08:44:00,27.4,21.4,-100.00,SW,215,6.0,10.4,78,0.00,CLR,FEW,0.00,WeatherDisplay:10.37,2017-12-13 14:44:00,
2017-12-13 08:49:00,27.4,21.4,-100.00,SW,217,5.8,8.1,78,0.00,CLR,FEW,0.00,WeatherDisplay:10.37,2017-12-13 14:49:00,
2017-12-13 08:59:00,27.7,21.7,-100.00,SSE,152,3.6,6.2,78,0.00,CLR,FEW,0.00,WeatherDisplay:10.37,2017-12-13 14:59:00,
2017-12-13 09:04:00,27.6,21.6,-100.00,SW,217,6.0,9.3,78,0.00,CLR,FEW,0.00,WeatherDisplay:10.37,2017-12-13 15:04:00,
2017-12-13 09:09:00,27.7,21.7,-100.00,SSW,213,4.7,8.1,78,0.00,CLR,FEW,0.00,WeatherDisplay:10.37,2017-12-13 15:09:00,
2017-12-13 09:14:00,27.7,21.7,-100.00,South,174,3.1,5.8,78,0.00,CLR,FEW,0.00,WeatherDisplay:10.37,2017-12-13 15:14:00,
2017-12-13 09:15:00,27.8,21.8,-100.00,South,181,4.9,8.1,78,0.00,CLR,FEW,0.00,WeatherDisplay:10.37,2017-12-13 15:15:00,
2017-12-13 09:20:00,27.8,22.1,-100.00,SW,224,3.3,5.8,79,0.00,CLR,FEW,0.00,WeatherDisplay:10.37,2017-12-13 15:20:00,
2017-12-13 09:25:00,27.8,22.1,-100.00,South,179,4.8,8.1,79,0.00,CLR,FEW,0.00,WeatherDisplay:10.37,2017-12-13 15:25:00,
2017-12-13 09:30:00,27.9,22.2,-100.00,WSW,246,3.4,6.9,79,0.00,CLR,FEW,0.00,WeatherDisplay:10.37,2017-12-13 15:30:00,
2017-12-13 09:35:00,27.9,22.2,-100.00,South,184,3.4,5.8,79,0.00,CLR,FEW,0.00,WeatherDisplay:10.37,2017-12-13 15:35:00,
2017-12-13 09:50:00,28.4,22.7,-100.00,WSW,246,3.6,5.8,79,0.00,CLR,FEW,0.00,WeatherDisplay:10.37,2017-12-13 15:50:00,
2017-12-13 09:55:00,28.6,22.9,-100.00,SSW,203,6.7,10.4,79,0.00,CLR,FEW,0.00,WeatherDisplay:10.37,2017-12-13 15:55:00,
2017-12-13 10:00:00,28.8,23.1,-100.00,SW,227,5.4,8.1,79,0.00,CLR,FEW,0.00,WeatherDisplay:10.37,2017-12-13 16:00:00,
2017-12-13 10:05:00,28.9,23.2,-100.00,SSW,213,4.0,7.3,79,0.00,CLR,FEW,0.00,WeatherDisplay:10.37,2017-12-13 16:05:00,
2017-12-13 10:10:00,29.2,23.5,-100.00,South,184,2.2,4.0,79,0.00,CLR,FEW,0.00,WeatherDisplay:10.37,2017-12-13 16:10:00,
2017-12-13 10:15:00,29.4,23.4,-100.00,SSW,202,3.4,6.9,78,0.00,CLR,FEW,0.00,WeatherDisplay:10.37,2017-12-13 16:15:00,
2017-12-13 10:20:00,29.6,23.6,-100.00,SW,222,4.0,6.8,78,0.00,CLR,FEW,0.00,WeatherDisplay:10.37,2017-12-13 16:20:00,
2017-12-13 10:25:00,29.8,23.8,-100.00,SSW,206,4.2,5.8,78,0.00,CLR,FEW,0.00,WeatherDisplay:10.37,2017-12-13 16:25:00,
2017-12-13 10:35:00,30.2,23.9,-100.00,SW,229,6.1,10.4,77,0.00,CLR,FEW,0.00,WeatherDisplay:10.37,2017-12-13 16:35:00,
2017-12-13 10:40:00,30.4,24.1,-100.00,SW,215,3.1,4.9,77,0.00,CLR,FEW,0.00,WeatherDisplay:10.37,2017-12-13 16:40:00,
2017-12-13 10:50:00,30.6,24.2,-100.00,South,174,2.4,3.5,77,0.00,CLR,FEW,0.00,WeatherDisplay:10.37,2017-12-13 16:50:00,
2017-12-13 10:55:00,31.0,24.6,-100.00,SSW,206,6.2,7.1,77,0.00,CLR,FEW,0.00,WeatherDisplay:10.37,2017-12-13 16:55:00,
2017-12-13 11:05:00,31.4,24.7,-100.00,WSW,239,3.3,5.8,76,0.00,CLR,FEW,0.00,WeatherDisplay:10.37,2017-12-13 17:05:00,
2017-12-13 11:10:00,31.4,24.7,-100.00,SSW,210,3.4,4.6,76,0.00,CLR,FEW,0.00,WeatherDisplay:10.37,2017-12-13 17:10:00,
2017-12-13 11:15:00,31.5,24.8,-100.00,WSW,243,3.5,5.5,76,0.00,CLR,FEW,0.00,WeatherDisplay:10.37,2017-12-13 17:15:00,
2017-12-13 11:20:00,31.5,24.5,-100.00,SW,229,4.0,5.7,75,0.00,CLR,FEW,0.00,WeatherDisplay:10.37,2017-12-13 17:20:00,
2017-12-13 11:25:00,31.5,24.5,-100.00,WSW,244,2.2,3.5,75,0.00,CLR,FEW,0.00,WeatherDisplay:10.37,2017-12-13 17:25:00,
2017-12-13 11:27:00,31.6,24.6,-100.00,WSW,257,1.3,2.3,75,0.00,CLR,FEW,0.00,WeatherDisplay:10.37,2017-12-13 17:27:00,
2017-12-13 11:32:00,31.5,24.5,-100.00,West,261,1.6,5.8,75,0.00,CLR,FEW,0.00,WeatherDisplay:10.37,2017-12-13 17:32:00,
2017-12-13 11:42:00,31.5,24.5,-100.00,NW,305,2.5,4.6,75,0.00,CLR,FEW,0.00,WeatherDisplay:10.37,2017-12-13 17:42:00,
2017-12-13 11:47:00,31.5,24.5,-100.00,WNW,284,0.0,2.3,75,0.00,CLR,FEW,0.00,WeatherDisplay:10.37,2017-12-13 17:47:00,
2017-12-13 11:53:00,31.5,24.5,-100.00,WNW,284,0.0,0.0,75,0.00,CLR,FEW,0.00,WeatherDisplay:10.37,2017-12-13 17:53:00,
2017-12-13 12:03:00,31.4,24.4,-100.00,NW,316,2.6,4.6,75,0.00,CLR,FEW,0.00,WeatherDisplay:10.37,2017-12-13 18:03:00,
2017-12-13 12:08:00,31.3,24.3,-100.00,NNE,23,3.0,4.2,75,0.00,CLR,FEW,0.00,WeatherDisplay:10.37,2017-12-13 18:08:00,
2017-12-13 12:13:00,31.4,24.4,-100.00,WSW,247,2.0,3.5,75,0.00,CLR,FEW,0.00,WeatherDisplay:10.37,2017-12-13 18:13:00,
2017-12-13 12:18:00,31.4,24.4,-100.00,NNE,24,0.5,2.3,75,0.00,CLR,FEW,0.00,WeatherDisplay:10.37,2017-12-13 18:18:00,
2017-12-13 12:23:00,31.6,24.6,-100.00,North,353,2.9,4.6,75,0.00,CLR,FEW,0.00,WeatherDisplay:10.37,2017-12-13 18:23:00,
2017-12-13 12:28:00,31.9,24.9,-100.00,WNW,296,3.2,4.6,75,0.00,CLR,FEW,0.00,WeatherDisplay:10.37,2017-12-13 18:28:00,
2017-12-13 12:48:00,32.4,25.0,-100.00,WNW,296,3.7,8.1,74,0.00,CLR,FEW,0.00,WeatherDisplay:10.37,2017-12-13 18:48:00,
2017-12-13 12:53:00,32.3,24.9,-100.00,West,264,2.7,4.6,74,0.00,CLR,FEW,0.00,WeatherDisplay:10.37,2017-12-13 18:53:00,
2017-12-13 12:58:00,32.5,25.1,-100.00,WNW,295,2.2,3.8,74,0.00,CLR,FEW,0.00,WeatherDisplay:10.37,2017-12-13 18:58:00,
2017-12-13 13:03:00,32.6,25.2,-100.00,West,280,4.6,8.1,74,0.00,CLR,FEW,0.00,WeatherDisplay:10.37,2017-12-13 19:03:00,
2017-12-13 13:08:00,32.6,24.9,-100.00,West,263,1.8,5.8,73,0.00,CLR,FEW,0.00,WeatherDisplay:10.37,2017-12-13 19:08:00,
2017-12-13 13:13:00,32.6,24.9,-100.00,NW,322,3.5,6.9,73,0.00,CLR,FEW,0.00,WeatherDisplay:10.37,2017-12-13 19:13:00,
2017-12-13 13:23:00,32.5,24.5,-100.00,NNW,335,4.2,6.9,72,0.00,CLR,FEW,0.00,WeatherDisplay:10.37,2017-12-13 19:23:00,
2017-12-13 13:28:00,32.4,24.7,-100.00,North,360,4.3,7.0,73,0.00,CLR,FEW,0.00,WeatherDisplay:10.37,2017-12-13 19:28:00,
2017-12-13 13:33:00,32.1,24.4,-100.00,SW,226,1.7,3.5,73,0.00,CLR,FEW,0.00,WeatherDisplay:10.37,2017-12-13 19:33:00,
2017-12-13 13:38:00,32.1,24.4,-100.00,North,349,3.5,5.8,73,0.00,CLR,FEW,0.00,WeatherDisplay:10.37,2017-12-13 19:38:00,
2017-12-13 13:48:00,31.6,24.3,-100.00,NW,308,4.2,13.8,74,0.00,CLR,FEW,0.00,WeatherDisplay:10.37,2017-12-13 19:48:00,
2017-12-13 13:58:00,30.9,23.9,-100.00,NNW,330,4.6,9.2,75,0.00,CLR,FEW,0.00,WeatherDisplay:10.37,2017-12-13 19:58:00,
2017-12-13 14:08:00,30.0,24.3,-100.00,WSW,250,8.1,13.8,79,0.00,CLR,FEW,0.00,WeatherDisplay:10.37,2017-12-13 20:08:00,
2017-12-13 14:18:00,29.2,24.4,-100.00,North,360,5.1,8.1,82,0.00,CLR,FEW,0.00,WeatherDisplay:10.37,2017-12-13 20:18:00,
2017-12-13 14:23:00,28.8,24.0,-100.00,WNW,298,3.3,5.8,82,0.00,CLR,FEW,0.00,WeatherDisplay:10.37,2017-12-13 20:23:00,
2017-12-13 14:28:00,28.5,24.0,-100.00,WNW,296,6.5,8.1,83,0.00,CLR,FEW,0.00,WeatherDisplay:10.37,2017-12-13 20:28:00,
2017-12-13 14:33:00,28.3,23.8,-100.00,WNW,291,7.3,11.5,83,0.00,CLR,FEW,0.00,WeatherDisplay:10.37,2017-12-13 20:33:00,
2017-12-13 14:43:00,27.4,22.6,-100.00,NNW,337,6.6,9.2,82,0.00,CLR,FEW,0.00,WeatherDisplay:10.37,2017-12-13 20:43:00,
2017-12-13 14:48:00,27.3,22.5,-100.00,WNW,302,4.5,11.5,82,0.00,CLR,FEW,0.00,WeatherDisplay:10.37,2017-12-13 20:48:00,
2017-12-13 14:53:00,27.0,22.2,-100.00,North,349,7.6,11.5,82,0.00,CLR,FEW,0.00,WeatherDisplay:10.37,2017-12-13 20:53:00,
2017-12-13 14:58:00,26.8,22.0,-100.00,NNW,337,6.9,11.5,82,0.00,CLR,FEW,0.00,WeatherDisplay:10.37,2017-12-13 20:58:00,
2017-12-13 15:08:00,26.5,21.7,-100.00,WNW,295,5.7,12.7,82,0.00,CLR,FEW,0.00,WeatherDisplay:10.37,2017-12-13 21:08:00,
2017-12-13 15:13:00,26.2,21.5,-100.00,WSW,256,4.6,9.2,82,0.00,CLR,FEW,0.00,WeatherDisplay:10.37,2017-12-13 21:13:00,
2017-12-13 15:18:00,26.0,21.3,-100.00,West,274,5.1,9.2,82,0.00,CLR,FEW,0.00,WeatherDisplay:10.37,2017-12-13 21:18:00,
2017-12-13 15:48:00,24.8,20.1,-100.00,North,3,7.5,15.0,82,0.00,CLR,FEW,0.00,WeatherDisplay:10.37,2017-12-13 21:48:00,
2017-12-13 15:53:00,24.5,19.8,-100.00,NNW,333,8.8,12.7,82,0.00,CLR,FEW,0.00,WeatherDisplay:10.37,2017-12-13 21:53:00,
2017-12-13 15:58:00,24.4,19.7,-100.00,NW,312,8.8,23.4,82,0.00,CLR,FEW,0.00,WeatherDisplay:10.37,2017-12-13 21:58:00,
2017-12-13 16:03:00,24.2,19.5,-100.00,WNW,287,6.7,10.4,82,0.00,CLR,FEW,0.00,WeatherDisplay:10.37,2017-12-13 22:03:00,
2017-12-13 16:08:00,24.1,19.4,-100.00,NNE,23,2.8,9.2,82,0.00,CLR,FEW,0.00,WeatherDisplay:10.37,2017-12-13 22:08:00,
2017-12-13 16:13:00,23.9,19.2,-100.00,NW,323,6.6,12.7,82,0.00,CLR,FEW,0.00,WeatherDisplay:10.37,2017-12-13 22:13:00,
2017-12-13 16:18:00,23.9,19.2,-100.00,WSW,247,5.1,8.1,82,0.00,CLR,FEW,0.00,WeatherDisplay:10.37,2017-12-13 22:18:00,
2017-12-13 16:28:00,23.5,18.8,-100.00,WSW,248,5.2,13.8,82,0.00,CLR,FEW,0.00,WeatherDisplay:10.37,2017-12-13 22:28:00,
2017-12-13 16:33:00,23.4,18.7,-100.00,NNW,342,6.5,9.9,82,0.00,CLR,FEW,0.00,WeatherDisplay:10.37,2017-12-13 22:33:00,
2017-12-13 16:38:00,23.4,18.7,-100.00,NW,304,8.5,22.1,82,0.00,CLR,FEW,0.00,WeatherDisplay:10.37,2017-12-13 22:38:00,
2017-12-13 16:43:00,23.1,18.4,-100.00,NW,315,7.4,13.8,82,0.00,CLR,FEW,0.00,WeatherDisplay:10.37,2017-12-13 22:43:00,
2017-12-13 16:48:00,23.2,18.5,-100.00,NW,325,3.4,6.9,82,0.00,CLR,FEW,0.00,WeatherDisplay:10.37,2017-12-13 22:48:00,
2017-12-13 16:53:00,23.0,18.6,-100.00,NW,312,4.3,6.9,83,0.00,CLR,FEW,0.00,WeatherDisplay:10.37,2017-12-13 22:53:00,
2017-12-13 16:58:00,22.8,18.4,-100.00,WNW,302,4.2,6.9,83,0.00,CLR,FEW,0.00,WeatherDisplay:10.37,2017-12-13 22:58:00,
2017-12-13 17:03:00,22.7,18.3,-100.00,WNW,289,6.8,9.8,83,0.00,CLR,FEW,0.00,WeatherDisplay:10.37,2017-12-13 23:03:00,
2017-12-13 17:08:00,22.6,18.5,-100.00,NW,315,7.2,11.0,84,0.00,CLR,FEW,0.00,WeatherDisplay:10.37,2017-12-13 23:08:00,